Tracking 19219 objects as of 19-Jul-2018
HD Live streaming from Space Station
objects crossing your sky now

FENGYUN 1C DEB

Track FENGYUN 1C DEB now!
10-day predictions


NORAD ID: 36735
Int'l Code: 1999-025EBH
Perigee: 711.6 km
Apogee: 850.9 km
Inclination: 99.1 °
Period: 100.3 minutes
Semi major axis: 7152 km
RCS: 0.0108 m2 (small)
Launch date: May 10, 1999
Source: People's Republic of China (PRC)
Launch site: Taiyaun Space Center, China (TSC)

Note: This is SATELLITE DEBRIS
aabbcc
Your satellite tracking list
Your tracking list is empty




NASA's NSSDC Master Catalog

Two Line Element Set (TLE):
1 36735U 99025EBH 18199.45551219  .00000513  00000-0  18631-3 0  9990
2 36735  99.1298  74.7223 0097385 186.8246 297.8888 14.35282846555745
Source of the keplerian elements: AFSPC